TimeEDT,TemperatureF,Dew PointF,Humidity,Sea Level PressureIn,VisibilityMPH,Wind Direction,Wind SpeedMPH,Gust SpeedMPH,PrecipitationIn,Events,Conditions,WindDirDegrees,DateUTC
12:56 AM,42.1,-9999,N/A,30.53,10.0,NW,3.5,-,N/A,,Clear,320,2013-05-03 04:56:00
1:56 AM,39.9,-9999,N/A,30.51,10.0,NNW,3.5,-,N/A,,Clear,340,2013-05-03 05:56:00
2:56 AM,41.0,-9999,N/A,30.50,10.0,North,4.6,-,N/A,,Clear,360,2013-05-03 06:56:00
3:56 AM,39.9,-9999,N/A,30.51,10.0,NNW,4.6,-,N/A,,Clear,340,2013-05-03 07:56:00
4:56 AM,39.0,-9999,N/A,30.51,10.0,North,4.6,-,N/A,,Clear,350,2013-05-03 08:56:00
5:56 AM,37.9,-9999,N/A,30.53,10.0,North,4.6,-,N/A,,Clear,350,2013-05-03 09:56:00
6:56 AM,43.0,-9999,N/A,30.55,10.0,North,4.6,-,N/A,,Clear,10,2013-05-03 10:56:00
7:56 AM,46.0,39.0,76,30.56,10.0,ENE,10.4,-,N/A,,Partly Cloudy,60,2013-05-03 11:56:00
8:15 AM,48.2,39.2,71,30.52,10.0,NE,10.4,-,N/A,,Mostly Cloudy,50,2013-05-03 12:15:00
8:25 AM,48.2,39.2,71,30.52,10.0,NE,11.5,-,N/A,,Scattered Clouds,40,2013-05-03 12:25:00
8:56 AM,50.0,39.0,66,30.56,10.0,NE,11.5,-,N/A,,Scattered Clouds,50,2013-05-03 12:56:00
9:56 AM,53.1,39.0,59,30.55,10.0,East,12.7,20.7,N/A,,Scattered Clouds,80,2013-05-03 13:56:00
10:56 AM,55.0,37.9,53,30.55,10.0,NE,15.0,21.9,N/A,,Clear,50,2013-05-03 14:56:00
11:56 AM,55.9,39.9,55,30.53,10.0,East,15.0,19.6,N/A,,Partly Cloudy,80,2013-05-03 15:56:00
12:56 PM,57.0,41.0,55,30.51,10.0,ENE,12.7,-,N/A,,Clear,60,2013-05-03 16:56:00
1:56 PM,57.9,41.0,53,30.50,10.0,NE,13.8,19.6,N/A,,Scattered Clouds,40,2013-05-03 17:56:00
2:56 PM,57.9,41.0,53,30.48,10.0,East,16.1,23.0,N/A,,Clear,90,2013-05-03 18:56:00
3:56 PM,59.0,42.1,53,30.46,10.0,East,11.5,17.3,N/A,,Partly Cloudy,90,2013-05-03 19:56:00
4:56 PM,57.9,42.1,56,30.45,10.0,East,13.8,-,N/A,,Clear,90,2013-05-03 20:56:00
5:56 PM,55.9,42.1,60,30.44,10.0,East,12.7,-,N/A,,Clear,80,2013-05-03 21:56:00
6:56 PM,55.0,41.0,59,30.45,10.0,ENE,8.1,-,N/A,,Clear,60,2013-05-03 22:56:00
7:56 PM,48.9,37.9,66,30.45,10.0,SE,4.6,-,N/A,,Clear,140,2013-05-03 23:56:00
8:56 PM,48.0,37.9,68,30.45,10.0,SE,4.6,-,N/A,,Clear,130,2013-05-04 00:56:00
9:56 PM,46.0,37.9,73,30.45,10.0,Calm,Calm,-,N/A,,Clear,0,2013-05-04 01:56:00
10:56 PM,44.1,37.9,79,30.43,10.0,Calm,Calm,-,N/A,,Clear,0,2013-05-04 02:56:00
11:56 PM,41.0,37.9,89,30.42,10.0,Calm,Calm,-,N/A,,Clear,0,2013-05-04 03:56:00